Time,TemperatureF,DewpointF,PressureIn,WindDirection,WindDirectionDegrees,WindSpeedMPH,WindSpeedGustMPH,Humidity,HourlyPrecipIn,Conditions,Clouds,dailyrainin,SolarRadiationWatts/m^2,SoftwareType,DateUTC
2013-06-27 00:02:00,60.0,59.0,-100.00,South,180,4.0,6.0,96,0.00,,,0.27,0.000000,,2013-06-27 07:02:00,
2013-06-27 00:34:00,60.0,58.0,-100.00,South,181,5.0,6.0,92,0.00,,,0.23,0.000000,,2013-06-27 07:34:00,
2013-06-27 00:42:00,60.0,58.0,-100.00,South,181,5.0,6.0,92,0.00,,,0.23,0.000000,,2013-06-27 07:42:00,
2013-06-27 00:52:00,60.0,58.0,-100.00,South,181,5.0,6.0,92,0.00,,,0.23,0.000000,,2013-06-27 07:52:00,
2013-06-27 01:01:00,60.0,58.0,-100.00,South,181,5.0,6.0,92,0.00,,,0.23,0.000000,,2013-06-27 08:01:00,
2013-06-27 01:34:00,60.0,58.0,-100.00,South,181,4.0,6.0,93,0.00,,,0.16,0.000000,,2013-06-27 08:34:00,
2013-06-27 01:43:00,60.0,58.0,-100.00,South,181,4.0,6.0,93,0.00,,,0.16,0.000000,,2013-06-27 08:43:00,
2013-06-27 01:52:00,60.0,58.0,-100.00,South,181,4.0,6.0,93,0.00,,,0.16,0.000000,,2013-06-27 08:52:00,
2013-06-27 02:02:00,60.0,58.0,-100.00,South,181,4.0,6.0,93,0.00,,,0.16,0.000000,,2013-06-27 09:02:00,
2013-06-27 02:34:00,58.0,57.0,-100.00,South,182,5.0,7.0,95,0.00,,,0.09,0.000000,,2013-06-27 09:34:00,
2013-06-27 02:43:00,58.0,57.0,-100.00,South,182,5.0,7.0,95,0.00,,,0.09,0.000000,,2013-06-27 09:43:00,
2013-06-27 02:53:00,58.0,57.0,-100.00,South,182,5.0,7.0,95,0.00,,,0.09,0.000000,,2013-06-27 09:53:00,
2013-06-27 03:01:00,58.0,57.0,-100.00,South,182,5.0,7.0,95,0.00,,,0.09,0.000000,,2013-06-27 10:01:00,
2013-06-27 03:32:00,58.0,57.0,-100.00,NW,318,3.0,9.0,97,0.00,,,0.07,0.000000,,2013-06-27 10:32:00,
2013-06-27 03:44:00,58.0,57.0,-100.00,NW,318,3.0,9.0,97,0.00,,,0.07,0.000000,,2013-06-27 10:44:00,
2013-06-27 03:54:00,58.0,57.0,-100.00,NW,318,3.0,9.0,97,0.00,,,0.07,0.000000,,2013-06-27 10:54:00,
2013-06-27 04:01:00,58.0,57.0,-100.00,NW,318,3.0,9.0,97,0.00,,,0.07,0.000000,,2013-06-27 11:01:00,
2013-06-27 04:33:00,57.0,56.0,-100.00,SSE,165,2.0,4.0,97,0.00,,,0.04,0.000000,,2013-06-27 11:33:00,
2013-06-27 04:43:00,57.0,56.0,-100.00,SSE,165,2.0,4.0,97,0.00,,,0.04,0.000000,,2013-06-27 11:43:00,
2013-06-27 04:52:00,57.0,56.0,-100.00,SSE,165,2.0,4.0,97,0.00,,,0.04,0.000000,,2013-06-27 11:52:00,
2013-06-27 05:01:00,57.0,56.0,-100.00,SSE,165,2.0,4.0,97,0.00,,,0.04,0.000000,,2013-06-27 12:01:00,
2013-06-27 05:34:00,57.0,57.0,-100.00,South,172,5.0,6.0,100,0.00,,,0.03,0.000000,,2013-06-27 12:34:00,
2013-06-27 05:42:00,57.0,57.0,-100.00,South,172,5.0,6.0,100,0.00,,,0.03,0.000000,,2013-06-27 12:42:00,
2013-06-27 06:01:00,57.0,57.0,-100.00,South,172,5.0,6.0,100,0.00,,,0.03,0.000000,,2013-06-27 13:01:00,
2013-06-27 06:34:00,57.0,57.0,-100.00,South,177,5.0,6.0,100,0.00,,,0.00,9.000000,,2013-06-27 13:34:00,
2013-06-27 06:43:00,57.0,57.0,-100.00,South,177,5.0,6.0,100,0.00,,,0.00,9.000000,,2013-06-27 13:43:00,
2013-06-27 06:52:00,57.0,57.0,-100.00,South,177,5.0,6.0,100,0.00,,,0.00,9.000000,,2013-06-27 13:52:00,
2013-06-27 07:01:00,57.0,57.0,-100.00,South,177,5.0,6.0,100,0.00,,,0.00,9.000000,,2013-06-27 14:01:00,
2013-06-27 07:33:00,60.0,58.0,-100.00,South,172,2.0,5.0,93,0.00,,,0.00,52.000000,,2013-06-27 14:33:00,
2013-06-27 07:43:00,60.0,58.0,-100.00,South,172,2.0,5.0,93,0.00,,,0.00,52.000000,,2013-06-27 14:43:00,
2013-06-27 07:52:00,60.0,58.0,-100.00,South,172,2.0,5.0,93,0.00,,,0.00,52.000000,,2013-06-27 14:52:00,
2013-06-27 08:01:00,60.0,58.0,-100.00,South,172,2.0,5.0,93,0.00,,,0.00,52.000000,,2013-06-27 15:01:00,
2013-06-27 08:33:00,65.0,60.0,-100.00,SSE,160,2.0,4.0,83,0.00,,,0.00,209.000000,,2013-06-27 15:33:00,
2013-06-27 08:42:00,65.0,60.0,-100.00,SSE,160,2.0,4.0,83,0.00,,,0.00,209.000000,,2013-06-27 15:42:00,
2013-06-27 08:52:00,65.0,60.0,-100.00,SSE,160,2.0,4.0,83,0.00,,,0.00,209.000000,,2013-06-27 15:52:00,
2013-06-27 09:02:00,65.0,60.0,-100.00,SSE,160,2.0,4.0,83,0.00,,,0.00,209.000000,,2013-06-27 16:02:00,
2013-06-27 09:34:00,67.0,60.0,-100.00,South,173,3.0,7.0,78,0.00,,,0.00,281.000000,,2013-06-27 16:34:00,
2013-06-27 09:43:00,67.0,60.0,-100.00,South,173,3.0,7.0,78,0.00,,,0.00,281.000000,,2013-06-27 16:43:00,
2013-06-27 09:53:00,67.0,60.0,-100.00,South,173,3.0,7.0,78,0.00,,,0.00,281.000000,,2013-06-27 16:53:00,
2013-06-27 10:01:00,67.0,60.0,-100.00,South,173,3.0,7.0,78,0.00,,,0.00,281.000000,,2013-06-27 17:01:00,
2013-06-27 10:33:00,69.0,60.0,-100.00,North,350,3.0,6.0,73,0.00,,,0.00,426.000000,,2013-06-27 17:33:00,
2013-06-27 10:43:00,69.0,60.0,-100.00,North,350,3.0,6.0,73,0.00,,,0.00,426.000000,,2013-06-27 17:43:00,
2013-06-27 10:53:00,69.0,60.0,-100.00,North,350,3.0,6.0,73,0.00,,,0.00,426.000000,,2013-06-27 17:53:00,
2013-06-27 11:01:00,69.0,60.0,-100.00,North,350,3.0,6.0,73,0.00,,,0.00,426.000000,,2013-06-27 18:01:00,
2013-06-27 12:34:00,71.0,64.0,-100.00,North,359,3.0,8.0,78,0.00,,,0.00,710.000000,,2013-06-27 19:34:00,
2013-06-27 12:42:00,71.0,64.0,-100.00,North,359,3.0,8.0,78,0.00,,,0.00,710.000000,,2013-06-27 19:42:00,
2013-06-27 12:53:00,71.0,64.0,-100.00,North,359,3.0,8.0,78,0.00,,,0.00,710.000000,,2013-06-27 19:53:00,
2013-06-27 13:01:00,71.0,64.0,-100.00,North,359,3.0,8.0,78,0.00,,,0.00,710.000000,,2013-06-27 20:01:00,
2013-06-27 13:39:00,73.0,63.0,-100.00,North,352,4.0,9.0,70,0.00,,,0.00,888.000000,,2013-06-27 20:39:00,
2013-06-27 13:47:00,73.0,63.0,-100.00,North,352,4.0,9.0,70,0.00,,,0.00,888.000000,,2013-06-27 20:47:00,
2013-06-27 13:54:00,73.0,63.0,-100.00,North,352,4.0,9.0,70,0.00,,,0.00,888.000000,,2013-06-27 20:54:00,
2013-06-27 14:01:00,73.0,63.0,-100.00,North,352,4.0,9.0,70,0.00,,,0.00,888.000000,,2013-06-27 21:01:00,
2013-06-27 14:36:00,73.0,64.0,-100.00,NNW,344,5.0,9.0,74,0.00,,,0.00,1043.000000,,2013-06-27 21:36:00,
2013-06-27 14:48:00,73.0,64.0,-100.00,NNW,344,5.0,9.0,74,0.00,,,0.00,1043.000000,,2013-06-27 21:48:00,
2013-06-27 14:54:00,73.0,64.0,-100.00,NNW,344,5.0,9.0,74,0.00,,,0.00,1043.000000,,2013-06-27 21:54:00,
2013-06-27 15:03:00,73.0,64.0,-100.00,NNW,344,5.0,9.0,74,0.00,,,0.00,1043.000000,,2013-06-27 22:03:00,
2013-06-27 15:36:00,73.0,63.0,-100.00,North,351,4.0,9.0,71,0.00,,,0.00,674.000000,,2013-06-27 22:36:00,
2013-06-27 15:48:00,73.0,63.0,-100.00,North,351,4.0,9.0,71,0.00,,,0.00,674.000000,,2013-06-27 22:48:00,
2013-06-27 15:57:00,73.0,63.0,-100.00,North,351,4.0,9.0,71,0.00,,,0.00,674.000000,,2013-06-27 22:57:00,
2013-06-27 16:02:00,73.0,63.0,-100.00,North,351,4.0,9.0,71,0.00,,,0.00,674.000000,,2013-06-27 23:02:00,
2013-06-27 16:36:00,75.0,64.0,-100.00,North,350,3.0,9.0,68,0.00,,,0.00,842.000000,,2013-06-27 23:36:00,
2013-06-27 16:46:00,75.0,64.0,-100.00,North,350,3.0,9.0,68,0.00,,,0.00,842.000000,,2013-06-27 23:46:00,
2013-06-27 16:56:00,75.0,64.0,-100.00,North,350,3.0,9.0,68,0.00,,,0.00,842.000000,,2013-06-27 23:56:00,
2013-06-27 17:02:00,75.0,64.0,-100.00,North,350,3.0,9.0,68,0.00,,,0.00,842.000000,,2013-06-28 00:02:00,
2013-06-27 17:45:00,72.0,62.0,-100.00,North,357,4.0,11.0,70,0.00,,,0.00,248.000000,,2013-06-28 00:45:00,
2013-06-27 17:55:00,72.0,62.0,-100.00,North,357,4.0,11.0,70,0.00,,,0.00,248.000000,,2013-06-28 00:55:00,
2013-06-27 18:02:00,72.0,62.0,-100.00,North,357,4.0,11.0,70,0.00,,,0.00,248.000000,,2013-06-28 01:02:00,
2013-06-27 18:47:00,71.0,61.0,-100.00,NNW,336,4.0,9.0,71,0.00,,,0.00,600.000000,,2013-06-28 01:47:00,
2013-06-27 18:56:00,71.0,61.0,-100.00,NNW,336,4.0,9.0,71,0.00,,,0.00,600.000000,,2013-06-28 01:56:00,
2013-06-27 19:03:00,71.0,61.0,-100.00,NNW,336,4.0,9.0,71,0.00,,,0.00,600.000000,,2013-06-28 02:03:00,
2013-06-27 19:38:00,68.0,61.0,-100.00,North,354,4.0,9.0,77,0.00,,,0.00,323.000000,,2013-06-28 02:38:00,
2013-06-27 19:49:00,68.0,61.0,-100.00,North,354,4.0,9.0,77,0.00,,,0.00,323.000000,,2013-06-28 02:49:00,
2013-06-27 19:56:00,68.0,61.0,-100.00,North,354,4.0,9.0,77,0.00,,,0.00,323.000000,,2013-06-28 02:56:00,
2013-06-27 20:02:00,68.0,61.0,-100.00,North,354,4.0,9.0,77,0.00,,,0.00,323.000000,,2013-06-28 03:02:00,
2013-06-27 20:39:00,66.0,60.0,-100.00,North,355,2.0,9.0,81,0.00,,,0.00,204.000000,,2013-06-28 03:39:00,
2013-06-27 20:46:00,66.0,60.0,-100.00,North,355,2.0,9.0,81,0.00,,,0.00,204.000000,,2013-06-28 03:46:00,
2013-06-27 20:56:00,66.0,60.0,-100.00,North,355,2.0,9.0,81,0.00,,,0.00,204.000000,,2013-06-28 03:56:00,
2013-06-27 21:02:00,66.0,60.0,-100.00,North,355,2.0,9.0,81,0.00,,,0.00,204.000000,,2013-06-28 04:02:00,
2013-06-27 21:33:00,62.0,59.0,-100.00,NNW,337,2.0,7.0,91,0.00,,,0.00,31.000000,,2013-06-28 04:33:00,
2013-06-27 21:43:00,62.0,59.0,-100.00,NNW,337,2.0,7.0,91,0.00,,,0.00,31.000000,,2013-06-28 04:43:00,
2013-06-27 21:53:00,62.0,59.0,-100.00,NNW,337,2.0,7.0,91,0.00,,,0.00,31.000000,,2013-06-28 04:53:00,
2013-06-27 22:01:00,62.0,59.0,-100.00,NNW,337,2.0,7.0,91,0.00,,,0.00,31.000000,,2013-06-28 05:01:00,
2013-06-27 22:33:00,61.0,59.0,-100.00,NNW,331,1.0,3.0,93,0.00,,,0.00,0.000000,,2013-06-28 05:33:00,
2013-06-27 22:43:00,61.0,59.0,-100.00,NNW,331,1.0,3.0,93,0.00,,,0.00,0.000000,,2013-06-28 05:43:00,
2013-06-27 22:53:00,61.0,59.0,-100.00,NNW,331,1.0,3.0,93,0.00,,,0.00,0.000000,,2013-06-28 05:53:00,
2013-06-27 23:02:00,61.0,59.0,-100.00,NNW,331,1.0,3.0,93,0.00,,,0.00,0.000000,,2013-06-28 06:02:00,
2013-06-27 23:34:00,60.0,59.0,-100.00,NW,320,0.0,4.0,95,0.00,,,0.00,0.000000,,2013-06-28 06:34:00,
2013-06-27 23:43:00,60.0,59.0,-100.00,NW,320,0.0,4.0,95,0.00,,,0.00,0.000000,,2013-06-28 06:43:00,
2013-06-27 23:52:00,60.0,59.0,-100.00,NW,320,0.0,4.0,95,0.00,,,0.00,0.000000,,2013-06-28 06:52:00,